Theta_e
289 289 286 288 287 286 286 284 285 284 283 282 281 282 282 281 283 283 281 283 283 284 284 286 284 285 286 288 290 285 284 283 284 284 284 284 284 283 283 284 284 285 285 286 286 286 285 284 283 283 282 282 282 281 281 282 282 282 283 284 282 282 283 284 283 282 282 280 280 280 280 279 279 280 282 280 281 281 281 282 281 281 281 281 281 281
291 288 287 288 289 286 286 282 281 282 283 284 283 281 282 280 281 286 284 284 282 285 282 280 281 284 286 288 290 286 284 283 284 284 284 285 284 284 284 284 284 285 284 285 285 284 283 283 283 282 281 283 281 281 281 282 282 282 281 282 282 282 282 282 282 283 283 281 280 280 279 279 279 279 279 279 280 280 282 281 280 280 280 280 280 281
286 287 289 285 285 282 280 281 282 285 283 281 283 280 280 282 281 284 283 281 282 283 283 283 282 285 287 288 290 290 286 288 287 286 287 286 285 284 284 284 285 284 284 284 285 284 283 282 282 281 281 281 282 282 282 281 281 281 281 281 282 282 281 282 283 283 281 281 282 280 280 279 279 280 281 280 281 281 281 279 279 280 279 279 279 279
288 284 287 285 283 284 281 280 281 282 282 281 280 281 282 282 282 282 282 281 283 283 283 283 283 284 287 288 289 291 290 289 289 287 287 287 286 285 285 285 285 284 284 284 284 284 282 282 282 281 281 281 281 282 281 280 281 281 283 281 281 281 281 281 282 285 281 281 282 281 280 280 279 279 281 281 280 279 279 278 279 279 279 279 279 279
289 288 283 282 283 285 283 283 283 282 283 280 282 281 282 282 282 283 282 281 281 281 281 281 284 285 284 285 286 286 282 285 288 286 285 286 287 288 287 286 286 285 285 285 284 283 282 281 281 281 281 281 281 281 281 281 281 283 282 282 281 281 281 281 284 282 281 282 280 279 279 280 279 279 279 277 277 278 278 279 277 277 278 278 278 278
288 286 282 284 284 285 284 283 282 284 281 277 280 284 285 284 283 281 280 281 279 278 280 281 282 277 277 281 283 286 284 286 284 284 285 286 285 285 285 286 286 286 286 286 285 284 282 282 281 280 280 280 281 281 281 281 282 282 281 281 281 280 281 281 280 281 281 280 279 277 277 276 276 276 276 275 275 276 276 276 277 278 278 278 278 278
288 283 284 285 284 283 284 282 280 284 281 282 283 282 283 283 282 281 280 281 276 275 280 279 278 279 280 285 283 285 282 285 285 283 285 285 285 285 286 286 285 285 285 285 285 283 282 281 280 280 280 280 280 281 281 280 281 281 280 280 280 280 280 281 281 280 282 279 278 277 276 276 276 275 276 276 276 276 277 277 277 277 277 277 277 277
283 284 282 283 283 282 283 282 282 284 283 281 281 279 281 282 282 280 281 282 280 279 280 280 281 278 279 283 288 290 288 287 287 288 287 285 284 285 286 286 285 285 285 285 284 283 282 281 281 280 280 280 281 281 280 281 280 280 281 280 280 280 282 281 280 280 280 279 278 277 276 278 276 275 275 276 276 277 278 276 276 276 276 276 277 277
284 283 283 283 282 281 283 282 281 285 284 280 281 280 280 281 280 279 281 278 278 276 277 277 280 277 275 277 279 281 283 284 286 288 288 287 285 285 286 286 286 286 286 285 284 283 282 281 281 281 280 280 281 281 281 281 281 281 280 281 280 279 279 280 279 281 279 280 279 277 276 275 277 277 277 277 277 276 276 275 275 275 275 276 276 276
285 284 283 285 283 283 282 279 281 285 284 283 281 280 280 279 279 278 276 279 274 273 278 278 279 274 280 279 281 279 280 282 284 287 288 287 286 285 285 285 285 285 285 285 285 284 282 282 281 281 281 280 280 281 282 280 280 280 279 280 280 278 278 279 278 278 278 277 278 276 276 275 275 276 275 275 274 274 275 274 274 274 275 275 275 275
285 286 285 284 285 284 280 280 280 282 282 282 281 281 280 277 276 275 274 272 270 271 280 281 279 280 277 279 281 281 282 283 286 285 284 284 283 283 284 284 285 284 284 284 283 283 282 281 281 280 280 280 280 280 280 280 280 279 279 278 278 278 278 278 278 277 277 277 276 276 275 275 274 274 274 274 274 274 274 273 273 274 274 274 274 275
284 284 285 283 283 282 282 282 281 280 280 281 281 279 282 281 274 270 263 268 270 274 273 274 278 280 275 278 280 284 282 282 287 287 287 287 286 284 283 283 284 284 284 283 282 281 281 279 279 279 279 280 280 279 279 279 279 279 279 278 277 277 277 277 278 277 277 276 276 276 275 275 274 274 274 273 273 273 273 273 273 273 273 273 274 274
282 284 282 285 285 285 281 282 282 280 281 281 279 277 276 272 271 272 266 271 268 274 274 272 275 276 277 284 281 283 285 286 283 287 289 288 288 284 282 283 283 283 282 282 281 281 280 280 279 278 279 279 279 279 279 279 279 279 278 277 277 277 276 276 276 276 276 275 275 275 275 274 275 274 274 273 273 273 273 273 272 272 272 273 272 273
282 280 282 284 285 285 285 284 278 280 280 280 281 275 272 270 268 268 267 263 268 271 273 277 276 276 282 283 288 288 289 288 287 285 285 286 287 286 283 282 282 282 282 282 281 281 281 281 280 279 279 279 280 279 279 278 279 278 278 277 277 276 276 276 276 275 275 275 275 274 274 274 274 273 273 273 273 273 273 273 272 272 272 272 272 272
275 281 281 284 283 284 287 289 285 280 280 282 279 282 280 271 265 267 264 271 276 274 271 273 274 274 274 280 280 288 291 291 289 284 280 281 282 282 281 281 281 281 281 281 281 281 281 281 280 280 280 280 280 279 278 278 279 277 277 276 277 276 276 276 275 275 275 274 274 274 274 274 273 273 273 273 274 273 273 272 272 272 272 272 272 272
281 282 280 283 281 284 285 282 281 281 280 279 278 280 276 279 276 275 270 266 269 272 272 269 277 276 282 280 281 277 278 282 282 280 280 282 280 280 280 281 281 281 280 280 280 280 280 280 279 280 279 280 280 279 278 278 278 277 277 276 276 275 275 275 276 275 274 274 274 273 273 273 274 275 274 273 273 273 272 272 272 272 272 272 272 272
280 277 281 282 281 283 282 281 284 283 280 280 281 277 279 280 282 275 271 268 268 266 276 268 275 280 282 286 286 286 281 284 280 279 279 280 279 279 281 281 281 280 280 280 280 280 280 279 279 280 279 279 279 278 278 278 277 277 276 276 275 275 275 275 275 274 273 273 273 273 273 272 272 272 272 271 271 272 272 272 272 272 272 272 272 272
282 281 281 281 283 282 279 280 280 278 282 280 274 279 280 280 280 278 273 269 264 267 274 269 277 280 279 279 278 279 280 282 281 281 282 281 277 278 281 281 281 280 280 280 280 280 280 279 279 279 279 279 279 279 278 278 276 276 276 275 275 275 274 274 274 273 273 273 273 272 272 272 272 272 271 271 271 271 271 271 271 271 271 271 272 272
286 282 282 278 280 281 281 282 284 283 281 280 277 281 281 275 275 273 268 270 266 267 269 272 275 279 281 282 282 278 279 281 281 282 281 281 278 279 280 281 279 278 279 279 279 279 279 279 279 279 279 279 279 279 278 277 276 276 275 275 274 274 274 274 274 273 273 273 273 273 272 271 271 271 271 271 271 271 270 270 270 271 271 271 272 272
286 283 281 279 280 281 281 282 279 280 281 281 281 280 279 278 271 271 276 268 270 269 267 275 276 278 284 281 282 283 282 281 282 280 281 282 281 280 281 281 279 278 279 279 279 279 279 279 279 278 278 278 277 277 277 276 275 275 275 275 275 275 274 273 272 272 272 272 272 271 271 271 271 271 271 271 270 270 270 270 270 270 270 271 271 271
284 282 281 281 280 280 279 281 282 283 279 278 279 276 275 275 277 275 273 272 273 266 269 267 273 280 286 286 286 286 283 282 282 283 284 284 282 281 281 281 280 279 279 279 279 279 279 279 278 278 278 278 277 277 276 275 275 275 274 274 274 273 272 272 272 272 271 271 271 271 270 270 270 270 270 270 270 269 269 270 271 270 271 271 270 271
284 282 283 281 278 279 282 281 282 284 286 283 282 281 281 276 272 270 274 273 269 274 270 268 274 281 286 285 287 285 284 284 284 286 288 285 281 280 280 280 280 280 279 279 279 279 279 278 278 277 277 276 276 276 275 275 274 274 273 273 273 272 272 271 271 271 270 270 270 269 269 269 269 269 269 269 269 269 269 269 270 270 270 270 270 270
286 281 283 281 282 282 280 282 277 279 281 282 282 281 283 282 278 273 273 275 267 275 271 268 269 279 290 284 284 285 284 285 286 285 286 282 280 280 280 280 280 280 280 279 279 279 278 278 278 277 276 276 276 275 274 274 274 274 273 272 272 271 271 271 271 270 270 269 269 269 269 269 268 269 268 268 268 269 269 269 269 270 269 269 269 270
291 282 280 284 280 277 279 278 278 278 282 282 282 279 280 280 281 282 282 275 273 269 272 269 272 279 287 281 281 279 278 280 279 279 281 281 280 279 279 279 279 279 278 278 278 278 278 278 277 277 276 276 275 274 274 274 274 273 272 272 272 271 271 270 270 270 269 269 268 268 268 268 268 268 268 268 268 268 268 269 269 269 269 269 269 268
282 283 282 276 274 276 276 278 278 279 279 279 280 282 282 283 281 277 275 273 273 279 273 275 272 279 287 276 279 276 279 279 282 278 278 280 280 279 279 278 278 278 277 277 277 277 277 277 277 277 277 276 275 274 274 273 273 272 272 271 271 270 270 270 269 269 268 268 267 267 267 267 267 267 267 267 268 268 268 268 268 268 268 267 267 267
285 281 282 275 275 273 273 273 275 273 278 278 276 277 281 281 281 276 277 277 275 279 276 277 278 285 289 285 278 280 277 279 280 278 277 278 279 279 278 278 278 278 278 277 277 277 277 278 277 276 276 276 275 274 273 273 272 272 271 271 270 269 269 269 268 268 267 267 266 266 266 266 266 267 267 267 267 267 267 268 267 267 267 266 266 266
280 280 284 284 281 279 281 281 279 279 277 276 278 279 281 281 282 282 280 275 276 278 276 281 282 283 285 288 284 282 282 278 282 283 280 278 278 278 277 278 278 278 278 277 277 278 277 276 276 276 275 275 274 273 273 272 271 270 270 270 269 269 268 268 267 267 266 266 266 266 266 266 266 266 266 266 267 267 267 266 266 265 265 265 265 265
275 280 283 284 285 285 285 285 280 282 279 280 280 279 281 281 280 279 278 277 282 276 276 282 283 281 283 286 287 288 289 290 290 290 287 280 279 279 279 278 280 277 277 277 277 277 277 277 276 275 274 274 273 272 272 271 270 270 269 268 268 268 267 267 267 266 265 265 265 265 265 266 266 266 266 266 266 266 265 265 265 265 264 264 264 264
283 283 286 284 283 285 286 286 281 280 282 283 281 282 281 280 279 278 278 282 282 279 278 283 285 282 284 287 289 289 290 290 291 291 287 284 282 279 277 277 277 277 277 276 277 277 277 276 276 275 273 273 272 271 270 268 268 268 268 268 268 267 267 267 266 265 265 264 265 265 265 266 266 266 266 266 265 264 264 264 264 264 263 263 263 264
281 284 286 285 283 284 284 284 282 280 282 283 283 282 283 280 280 280 281 283 282 281 283 284 284 284 287 288 290 291 292 292 292 292 286 281 281 280 277 277 277 277 276 277 277 277 277 277 275 274 273 272 271 270 269 268 268 268 267 267 267 267 267 265 264 263 264 264 264 265 265 265 265 265 264 264 263 263 263 263 262 262 262 262 263 263
284 282 289 284 282 283 285 285 283 283 283 282 284 284 284 283 280 282 282 282 282 281 283 283 282 283 288 291 291 292 292 291 290 289 290 289 284 280 278 278 278 277 277 277 277 277 277 276 274 273 272 271 270 269 268 267 267 266 266 266 266 266 265 264 263 263 263 263 263 264 264 264 264 263 262 262 262 261 261 261 261 261 261 262 262 263
284 278 279 278 282 282 285 284 281 283 283 282 282 284 284 284 282 283 281 283 281 280 281 281 279 281 287 290 290 290 289 289 288 289 289 289 287 281 279 279 278 277 277 277 277 277 276 274 273 272 271 270 269 268 267 266 266 265 265 266 265 265 264 263 263 262 262 262 263 263 263 262 262 261 261 261 260 260 260 260 260 260 261 261 262 263
282 281 282 281 280 280 285 279 279 279 280 278 280 283 285 285 286 286 286 286 285 285 281 280 281 287 289 290 288 289 289 289 289 289 288 288 285 282 281 280 279 278 278 277 277 276 276 275 273 272 271 269 268 267 266 266 265 265 265 265 265 263 262 262 262 262 262 262 262 262 262 261 260 259 259 259 259 259 259 259 260 260 261 261 263 264
278 282 282 284 279 280 281 278 279 278 274 276 287 288 288 285 285 283 284 286 287 287 285 288 288 290 290 289 288 289 289 290 291 291 288 288 286 282 280 280 279 279 278 278 277 277 276 275 273 272 270 269 268 267 266 266 265 265 265 264 263 262 262 261 261 261 261 261 261 261 260 260 258 258 258 259 259 259 259 259 259 260 262 263 263 263
281 282 282 284 280 280 278 278 275 272 275 286 288 287 287 287 287 286 286 287 287 288 288 288 288 289 290 291 291 290 291 291 292 289 283 283 285 285 282 280 279 278 278 277 276 276 275 274 272 270 268 267 266 266 265 265 264 264 263 262 261 261 260 260 260 260 260 260 260 259 259 258 258 257 258 258 258 258 258 259 260 261 262 262 263 262
282 282 281 280 281 276 274 277 273 274 285 287 288 288 284 285 283 284 283 286 287 288 288 287 288 289 290 290 291 291 291 288 284 281 281 284 284 284 282 280 279 278 277 277 277 276 275 273 270 268 267 267 266 265 265 264 263 262 261 261 261 260 260 259 258 259 259 258 258 258 258 257 257 257 257 257 257 257 258 259 260 260 262 262 262 262
287 284 283 280 285 277 278 278 278 284 283 285 285 288 284 283 279 282 281 284 289 289 288 287 288 289 289 289 290 290 283 280 284 287 284 283 282 282 283 282 280 279 279 278 278 277 275 272 269 268 267 266 265 264 263 263 261 260 260 260 259 259 258 258 257 257 258 257 257 257 257 257 256 256 256 257 257 257 258 259 259 260 261 261 261 261
287 285 285 281 280 284 279 277 278 278 275 280 288 285 286 287 287 286 284 283 290 291 289 288 288 289 288 288 288 283 278 281 282 285 289 284 281 280 279 279 278 279 278 277 275 273 271 269 267 266 265 264 264 263 262 261 260 260 259 258 258 257 258 257 256 257 256 257 257 256 256 256 256 255 256 256 256 257 258 259 260 260 261 260 260 260
286 287 286 283 280 282 280 277 276 275 278 286 287 283 282 284 285 284 281 280 288 289 287 289 288 288 288 287 284 278 279 277 281 284 287 278 279 279 278 278 278 278 276 274 272 269 267 267 266 265 264 263 262 262 261 261 260 259 258 258 258 258 257 256 256 256 256 256 256 256 256 256 255 255 255 255 256 257 257 258 259 259 260 260 260 260
282 282 282 280 279 281 280 278 276 281 280 286 284 279 281 284 287 284 275 278 289 288 289 288 288 288 288 286 281 280 281 278 281 286 281 278 279 278 278 276 274 273 272 271 270 267 266 266 264 263 262 261 261 261 260 260 259 258 258 258 258 257 256 256 256 256 256 256 256 255 255 255 254 255 255 255 256 257 258 259 259 259 259 259 259 259
279 279 281 277 279 280 281 279 282 282 287 290 285 281 283 284 285 279 276 285 287 284 286 288 287 288 287 282 280 280 282 287 285 279 276 277 276 275 275 275 273 271 270 268 267 268 265 264 264 262 262 261 261 260 260 259 258 257 257 257 257 256 256 256 256 255 255 255 254 254 254 254 254 254 255 256 256 258 258 258 258 258 258 258 259 259
278 279 279 281 278 278 280 278 279 283 288 287 282 284 284 285 277 279 289 288 289 288 283 286 287 286 285 283 282 285 286 283 274 277 276 276 276 273 272 271 269 269 268 268 267 265 264 263 262 261 261 260 260 260 259 258 257 257 257 256 256 256 257 256 255 254 253 253 253 253 253 253 254 255 255 256 257 257 257 258 258 258 258 258 258 259
279 278 274 278 280 280 280 278 277 274 286 290 282 282 283 283 285 292 294 287 287 288 285 284 286 286 285 284 283 284 279 276 276 275 276 274 272 270 269 268 268 267 266 265 264 265 263 262 261 260 260 260 259 259 259 257 257 257 256 256 256 256 256 255 254 253 252 252 252 252 252 253 253 254 255 256 256 256 256 257 257 257 257 258 258 259
286 280 277 281 284 277 277 275 276 284 289 285 287 283 284 289 294 294 292 292 292 287 286 286 284 285 285 286 284 282 279 277 275 275 274 273 272 270 269 268 268 267 266 265 265 264 263 262 261 260 259 259 259 259 258 257 257 256 256 257 256 256 255 253 253 251 250 250 251 251 252 253 253 254 255 255 256 255 255 256 256 257 257 258 259 260
287 286 286 282 286 284 281 284 288 290 289 287 291 292 292 291 293 294 293 292 292 288 286 288 288 286 285 285 285 282 278 278 277 276 274 273 271 269 268 268 267 267 266 264 264 263 263 261 260 259 258 258 258 258 257 257 256 256 255 256 255 255 254 252 250 249 249 249 249 250 251 252 253 254 254 255 255 255 255 255 256 255 256 258 259 260
291 292 292 289 286 290 291 290 289 286 284 286 290 293 293 293 291 290 290 289 289 291 287 287 288 286 284 284 283 281 280 279 277 276 275 272 270 269 269 268 267 267 265 264 263 263 262 260 259 258 257 257 257 257 257 256 257 255 256 255 255 254 253 250 248 249 248 248 249 249 250 251 253 254 255 254 255 255 255 255 255 255 256 258 259 260
290 290 289 286 288 286 282 290 289 289 285 285 287 290 291 291 291 290 289 289 290 291 288 286 286 285 284 283 284 282 280 278 277 276 274 272 270 269 268 267 267 266 264 263 263 262 260 259 258 257 257 256 257 256 256 256 256 256 255 254 254 253 251 248 249 249 248 247 248 249 250 251 253 254 254 254 254 254 255 255 255 256 257 258 259 260
285 291 287 287 287 286 286 291 291 292 292 289 287 287 288 289 289 287 287 289 289 289 287 286 284 284 283 282 283 282 280 278 277 275 273 272 271 270 268 267 266 265 265 264 262 261 259 259 258 257 257 256 257 256 255 255 255 254 254 254 253 250 249 249 250 248 246 246 247 249 250 251 255 254 253 253 254 254 253 254 255 256 257 258 259 260
288 290 283 287 286 287 290 291 291 288 286 287 290 290 291 291 291 289 288 287 287 287 285 284 284 285 283 283 283 282 279 277 277 276 274 272 271 270 268 267 266 265 264 262 260 260 259 259 258 257 257 257 257 255 255 254 254 254 254 253 251 249 249 249 249 246 246 247 248 249 252 252 251 252 252 253 253 254 255 254 256 258 258 260 261 263
286 285 288 287 284 284 285 288 290 285 286 290 290 291 292 292 291 290 289 287 287 286 285 284 283 283 283 283 283 282 279 277 277 276 274 273 271 270 269 267 265 264 263 262 260 260 260 259 258 258 257 257 256 255 254 253 253 253 254 252 251 249 248 248 248 245 246 248 248 249 251 251 251 250 252 251 252 253 254 258 263 261 260 260 265 268
289 289 289 286 285 285 290 292 293 292 292 293 294 295 294 293 292 289 288 288 288 288 287 285 283 281 280 281 283 282 281 278 277 276 274 274 272 270 269 266 264 263 262 261 260 260 259 259 258 258 257 256 255 254 253 253 253 252 253 252 252 250 248 248 247 246 247 248 247 250 252 251 251 252 252 251 252 252 252 253 255 262 264 265 266 267
Wind_Speed
1 2 5 6 8 8 5 7 5 4 6 2 2 1 7 6 9 4 3 2 0 1 11 13 9 12 17 18 17 8 9 12 11 12 14 10 11 13 13 15 16 16 17 7 8 8 9 9 8 7 6 6 6 6 6 6 5 5 5 3 3 3 3 2 2 2 2 2 3 2 3 5 4 5 4 3 1 0 2 1 2 3 3 4 5 5
2 2 9 9 9 7 4 5 6 5 1 1 1 3 9 4 10 6 2 1 4 3 6 2 5 12 16 15 16 3 9 16 16 16 15 14 13 14 16 18 18 17 4 5 8 8 7 8 8 6 6 6 8 6 6 7 8 6 4 4 4 3 3 3 3 3 2 2 2 3 5 5 6 6 5 5 4 4 3 3 4 5 5 6 6 7
1 9 8 6 3 5 5 5 2 3 2 1 3 2 3 9 6 11 4 2 0 2 10 7 9 15 16 16 17 15 13 14 13 17 19 15 15 14 15 18 16 10 12 10 12 9 10 10 9 8 7 8 10 10 9 8 5 5 4 5 4 3 3 4 4 3 2 3 3 2 3 4 5 4 4 4 3 3 3 3 3 4 3 4 5 5
5 7 11 2 5 6 3 3 4 3 2 3 1 1 9 3 3 9 1 3 1 2 6 6 15 17 15 15 20 24 8 14 10 14 15 12 16 18 20 19 17 17 15 16 16 16 13 12 11 8 8 9 7 8 6 5 6 5 5 4 4 4 4 3 3 3 3 3 3 3 4 5 5 5 4 4 3 2 2 5 4 3 4 5 5 5
11 2 0 5 3 5 4 2 4 3 6 2 5 5 5 5 6 8 5 5 5 2 0 8 13 13 8 11 9 5 2 5 9 6 9 11 13 13 11 10 15 19 18 17 14 14 14 14 13 12 10 8 9 8 8 7 6 5 6 6 5 4 4 4 3 4 3 2 2 3 4 4 4 4 5 4 2 1 2 3 3 3 3 4 4 4
12 4 3 4 2 1 4 3 6 6 4 3 7 12 9 7 6 4 3 4 5 5 3 5 11 4 2 4 10 11 5 7 3 7 12 12 11 9 12 16 13 12 12 17 18 19 18 16 12 10 10 10 9 9 8 8 7 5 5 4 4 3 3 3 3 3 2 1 1 3 5 7 5 7 8 9 9 9 8 8 6 6 5 5 5 6
6 2 2 5 5 3 3 4 3 6 6 1 6 5 8 4 1 1 2 4 5 3 1 4 0 15 4 1 5 7 4 10 7 7 11 7 10 11 15 14 13 15 14 12 11 11 14 15 12 12 11 11 10 9 7 6 6 5 5 5 4 4 3 3 3 2 2 1 1 1 2 3 4 5 4 2 3 4 6 5 7 6 5 5 6 6
3 1 5 3 4 4 4 5 5 10 5 6 1 4 5 4 2 2 1 2 6 0 5 2 6 12 16 9 9 15 11 9 14 18 13 11 10 13 15 14 13 14 15 15 16 17 17 16 17 16 13 11 11 9 7 6 5 6 6 5 4 4 3 3 2 2 1 1 1 2 2 3 4 3 6 5 5 4 5 7 7 6 6 5 5 7
4 4 3 4 1 3 8 5 5 9 8 4 3 5 3 3 3 3 1 3 1 5 9 4 1 5 8 6 3 1 6 10 15 19 14 11 11 13 14 14 14 15 15 16 15 18 19 19 16 12 12 10 9 8 9 7 7 6 5 4 3 3 3 3 2 1 1 1 1 2 3 4 3 4 5 5 5 5 5 7 6 7 7 6 5 6
1 2 7 7 6 8 5 1 5 12 5 1 5 5 6 6 5 2 2 1 4 3 15 5 8 5 20 6 4 1 2 9 13 15 13 8 8 12 13 12 13 10 10 13 16 15 16 15 13 10 10 10 9 8 8 6 5 5 4 4 3 3 2 2 2 1 1 1 1 2 3 4 6 4 6 4 7 6 5 8 8 7 7 7 7 6
0 5 5 4 6 4 5 2 2 1 2 5 5 3 3 6 3 2 6 2 3 6 14 6 16 10 12 5 10 10 10 11 12 7 6 6 5 7 9 11 10 12 12 12 13 13 13 11 10 9 12 11 9 7 7 6 6 5 5 4 3 3 2 2 2 1 2 1 1 2 3 4 6 7 6 8 8 7 8 9 9 8 8 8 8 7
1 2 0 3 4 4 4 4 3 2 2 3 1 2 5 2 5 3 4 4 1 11 2 2 8 8 10 7 6 7 3 6 11 9 7 7 9 8 7 9 10 11 11 11 11 12 12 10 10 8 11 11 10 7 7 6 5 5 5 3 3 3 2 2 1 1 2 2 3 2 3 4 5 6 6 7 9 9 10 9 10 9 9 9 8 7
5 9 2 2 4 9 3 5 1 2 2 4 5 3 1 6 7 5 3 1 6 10 1 2 3 5 17 21 3 7 12 9 8 8 8 7 8 6 6 9 9 9 9 11 12 11 13 16 15 12 11 10 10 10 9 8 6 6 4 4 3 3 2 2 1 1 2 2 3 3 3 4 5 5 6 7 8 8 9 9 10 10 10 9 10 9
8 1 1 4 2 5 7 6 2 1 4 7 6 5 5 0 1 6 5 2 7 6 4 2 2 10 10 11 17 19 19 14 11 10 7 7 10 8 6 7 7 9 11 12 12 13 15 16 14 13 12 11 10 10 9 7 6 6 5 4 3 4 1 1 1 2 2 3 3 3 3 5 5 5 5 6 8 8 8 8 9 10 9 10 11 11
5 9 7 7 5 3 9 10 8 6 9 10 3 9 8 8 6 5 3 7 11 8 1 5 3 9 2 7 2 15 17 12 10 7 5 6 6 5 4 5 7 8 8 9 11 13 15 15 14 13 12 11 11 10 8 6 6 6 4 4 3 3 2 0 1 1 3 3 3 3 4 5 4 5 5 6 6 8 9 9 9 9 8 9 10 11
10 10 3 1 0 3 9 1 5 6 5 2 3 5 4 9 6 6 5 3 4 7 8 3 8 4 8 2 2 1 3 7 6 5 5 10 6 3 3 6 9 9 9 10 11 12 12 13 12 11 11 11 10 9 7 7 6 5 5 4 4 3 2 1 1 2 2 3 3 4 5 5 4 5 5 6 6 7 7 10 9 11 10 8 11 12
2 7 1 3 3 1 2 1 1 3 7 4 6 7 8 1 4 2 2 1 2 3 16 3 11 12 5 14 14 16 6 10 2 6 6 11 6 3 8 9 8 9 10 11 13 13 13 10 11 11 11 10 9 8 8 8 7 7 5 4 3 2 1 1 1 2 3 3 4 5 5 5 5 5 6 8 9 9 8 8 9 9 10 10 10 10
6 6 0 3 5 0 0 0 0 3 3 8 3 8 2 2 4 5 6 3 2 4 11 1 14 20 8 17 7 4 7 10 8 10 13 9 2 6 11 10 10 10 10 10 10 9 11 12 12 10 9 10 10 9 8 7 6 5 5 5 3 1 1 1 1 2 2 3 4 5 5 4 5 6 7 8 9 9 9 9 9 9 10 10 9 10
5 8 1 2 1 3 1 0 1 1 1 3 2 2 5 3 1 2 4 4 3 5 8 8 8 15 16 18 4 3 7 8 9 11 10 11 9 11 12 10 6 5 7 10 12 12 13 14 14 13 11 9 9 8 8 7 6 4 4 3 3 3 2 2 2 2 2 3 4 4 4 6 6 6 7 7 8 9 9 11 11 12 11 10 10 11
1 5 4 1 3 1 1 4 9 6 1 1 0 1 1 1 2 5 7 4 5 6 1 16 8 20 8 9 7 6 12 8 9 7 10 14 14 12 11 10 9 10 12 12 12 13 14 14 12 13 12 11 9 8 7 7 5 5 4 3 2 1 1 1 2 2 3 4 4 5 5 5 6 6 7 7 8 9 10 11 11 12 12 12 9 11
3 3 8 1 4 1 4 8 14 15 11 3 3 3 1 0 2 4 1 5 6 4 6 4 11 21 17 9 9 9 8 11 11 11 11 12 12 12 12 10 10 12 12 13 13 13 14 13 11 10 9 9 7 6 6 6 6 5 4 3 2 2 2 2 2 2 4 3 3 5 6 6 6 7 7 8 8 10 10 10 11 11 11 10 12 10
3 4 12 5 1 7 10 1 3 5 12 14 15 14 16 10 4 2 12 3 2 4 7 6 18 18 15 9 5 6 7 9 11 12 13 10 10 10 11 10 11 12 13 12 12 11 11 10 9 8 7 6 8 7 7 5 5 5 4 3 2 2 1 1 2 3 3 3 4 5 6 6 6 7 7 8 9 10 10 10 10 11 11 12 11 10
5 2 1 10 13 11 1 0 0 1 1 2 7 7 10 9 6 5 11 9 1 7 5 2 3 21 22 6 5 5 7 8 11 11 13 7 8 10 11 11 10 11 11 11 11 11 11 11 11 11 10 9 10 9 7 6 5 5 4 3 2 2 2 2 3 2 2 4 5 6 6 6 7 7 8 9 9 10 11 10 11 10 11 11 11 11
4 2 4 13 5 2 1 1 1 2 1 3 6 2 6 11 16 15 11 4 6 2 4 0 5 20 20 8 1 3 2 5 5 5 6 6 7 7 9 9 11 10 8 7 8 8 9 9 9 10 10 10 9 7 7 6 5 4 4 3 2 2 2 2 2 2 3 4 5 5 6 7 7 8 8 9 8 10 10 10 10 9 11 11 11 13
4 5 6 2 5 7 3 2 1 2 2 5 6 8 11 9 5 2 5 1 1 14 7 10 17 21 17 6 2 2 0 2 8 5 6 9 6 8 9 9 7 7 6 8 11 11 10 10 13 13 11 10 9 7 7 6 5 5 4 3 2 2 2 1 2 2 3 3 6 6 7 8 8 9 9 9 9 11 12 11 11 11 12 13 13 13
6 6 8 9 16 15 14 11 11 8 11 4 3 2 8 16 14 4 9 8 11 9 14 9 21 28 20 9 3 1 3 6 10 6 6 7 8 8 8 8 8 9 12 11 10 11 16 16 12 10 10 9 9 8 7 6 6 5 4 3 2 2 1 2 1 2 3 4 6 6 7 8 8 8 9 10 10 10 10 10 11 11 11 10 14 14
4 3 11 16 16 18 19 9 2 7 5 7 9 14 17 13 16 15 8 4 15 9 11 23 30 24 22 32 12 5 9 8 12 9 10 9 9 10 6 8 10 12 12 14 15 14 9 8 14 12 10 9 9 7 7 6 5 5 4 3 2 1 1 1 1 3 4 5 6 7 8 8 8 9 9 9 9 9 10 11 11 11 12 12 13 14
2 6 13 17 21 21 17 16 7 9 7 9 12 13 17 17 14 16 17 20 18 6 17 20 25 20 28 33 25 20 22 21 21 19 12 6 9 11 13 10 7 6 6 8 9 13 17 16 12 11 11 10 9 8 7 6 6 5 4 3 2 1 1 1 2 3 4 5 6 7 8 8 8 9 9 9 10 10 10 10 11 11 12 12 14 15
5 11 16 15 19 19 18 18 8 6 8 9 12 16 18 16 13 18 22 27 19 14 23 27 26 22 28 28 26 21 22 19 21 19 8 11 8 7 4 7 10 13 11 12 15 15 14 15 14 12 11 10 9 9 8 7 5 4 3 3 1 1 1 1 2 4 4 5 6 7 7 8 8 8 9 10 10 10 11 11 12 12 12 13 13 13
1 12 13 12 15 15 20 18 6 11 9 10 13 17 20 11 17 23 28 28 18 20 26 29 25 27 30 31 22 25 21 17 18 15 7 4 7 8 9 10 13 12 13 16 17 17 15 13 12 12 11 10 10 9 8 7 6 4 4 3 2 1 0 3 2 3 5 6 7 7 7 8 8 8 9 10 10 11 11 12 12 12 13 13 12 13
7 11 14 8 11 17 20 15 7 12 11 15 20 25 24 11 16 26 27 14 14 21 29 26 25 29 31 25 21 24 20 13 16 19 21 17 10 10 11 13 13 12 15 16 14 13 12 12 11 11 12 11 11 10 8 7 5 5 3 3 2 1 1 2 2 3 4 6 6 7 7 7 7 8 9 9 10 10 11 12 12 12 13 14 14 14
7 6 1 2 9 16 15 13 6 10 10 13 21 30 25 22 23 24 20 15 14 23 23 19 22 26 28 25 20 19 18 17 21 21 19 17 13 9 12 14 12 13 15 15 14 13 13 14 14 14 13 12 10 10 9 8 6 5 4 4 2 1 1 2 2 4 5 6 6 6 6 6 8 8 8 9 9 10 11 11 12 12 13 14 15 14
8 4 8 7 11 16 13 4 6 3 1 9 22 31 29 25 23 20 17 16 22 22 17 20 26 28 24 16 18 22 21 17 18 17 17 13 10 11 14 15 14 14 15 14 15 16 17 17 16 14 12 11 11 10 9 8 7 6 5 4 2 1 1 2 2 4 5 5 5 6 6 6 7 7 8 8 10 10 11 12 12 13 14 15 14 13
3 9 10 6 11 11 5 4 4 4 12 21 17 2 14 22 21 20 22 26 23 18 19 24 27 25 15 17 21 24 21 22 20 15 7 9 11 12 13 12 13 14 13 12 15 16 15 12 11 11 13 12 10 9 8 7 6 6 4 4 2 1 1 2 3 4 5 5 5 5 6 6 6 7 8 8 10 10 11 12 13 12 13 14 14 14
10 10 12 5 7 10 5 6 1 15 20 19 4 5 6 9 11 17 21 22 26 25 24 25 30 29 20 25 23 21 21 22 20 14 5 8 12 13 13 15 13 13 13 14 14 14 16 16 14 12 12 12 11 9 9 8 6 6 4 4 2 1 1 2 3 4 5 5 5 5 4 5 6 7 9 9 10 11 11 12 13 14 12 11 13 15
11 12 4 4 4 4 3 9 15 21 11 9 15 14 4 2 3 4 13 21 25 23 21 21 29 27 22 25 22 19 18 14 13 8 6 13 13 11 12 13 14 13 14 15 19 18 19 19 20 19 14 10 10 9 8 7 7 6 5 3 3 2 1 2 3 5 4 3 5 3 5 5 6 7 9 10 11 11 12 12 12 14 13 12 12 12
14 7 6 12 10 14 12 14 20 12 18 23 21 27 6 7 5 9 16 21 24 21 17 18 24 23 21 19 19 18 6 5 12 18 8 16 10 12 14 14 14 16 17 15 17 17 15 16 17 15 12 11 10 10 8 7 7 6 5 4 3 2 3 2 3 3 4 4 5 5 5 5 6 8 9 10 11 12 12 13 14 12 11 13 12 12
15 17 11 13 10 12 14 13 10 10 17 20 34 4 8 8 10 11 9 22 25 27 9 17 23 24 20 15 16 7 3 4 14 16 14 7 10 11 6 4 4 6 8 11 11 14 15 14 15 10 11 13 10 8 8 8 7 6 5 4 3 2 3 2 2 4 3 4 3 5 5 6 6 8 9 9 11 12 12 12 11 11 10 12 13 14
14 14 14 14 12 9 12 14 15 14 20 16 20 2 2 1 6 6 3 17 24 8 16 20 19 19 17 14 9 7 4 6 15 14 9 5 7 8 7 5 8 10 13 18 22 19 17 14 12 13 11 11 11 9 8 8 7 6 5 4 4 3 2 2 2 2 3 4 4 5 4 5 6 7 8 9 10 11 13 12 12 11 10 10 11 13
13 11 10 13 15 15 15 14 16 9 13 13 3 2 2 10 10 6 8 17 14 15 17 13 18 18 15 12 8 9 11 11 12 13 2 6 7 7 10 12 12 13 13 13 13 18 16 14 16 11 11 10 10 10 10 8 7 6 6 4 4 3 2 1 2 3 3 4 4 3 4 4 5 7 8 10 11 11 10 10 11 11 12 11 10 12
7 8 12 19 18 19 20 16 10 9 7 15 7 7 8 4 7 5 19 26 1 2 8 15 14 15 11 7 11 11 14 16 7 2 6 8 9 7 5 8 13 18 20 18 16 14 13 10 10 12 11 10 10 9 8 7 7 6 5 5 4 3 2 1 1 2 3 3 4 4 5 5 4 8 9 9 10 10 10 9 11 12 12 12 11 11
8 9 6 10 14 16 17 18 17 12 8 3 9 17 8 6 6 17 27 6 4 9 6 8 13 10 9 14 12 13 12 6 5 4 7 8 9 10 12 14 14 12 10 10 13 16 17 12 11 11 10 9 10 8 8 8 7 6 5 5 4 2 2 1 1 1 2 3 4 4 5 5 6 6 8 9 8 10 10 9 9 10 11 11 11 14
14 11 12 14 11 8 8 12 9 12 13 18 13 4 5 10 20 24 21 7 3 8 9 8 9 10 10 11 13 14 3 4 6 8 7 9 13 16 18 19 17 16 16 15 12 7 15 14 11 10 11 10 9 8 7 8 8 6 5 5 4 3 2 1 0 1 1 2 4 5 6 6 7 8 7 8 9 9 11 10 9 10 10 11 12 13
11 7 4 12 13 11 15 14 13 19 16 19 24 16 18 25 26 23 12 13 14 9 9 9 9 11 13 13 14 11 8 7 4 8 8 8 11 14 15 15 13 10 10 6 8 12 10 12 11 11 10 9 8 7 7 7 8 6 6 5 4 3 2 1 1 0 1 2 4 5 6 7 7 7 7 7 9 8 9 10 10 10 9 11 11 11
15 21 16 16 14 14 14 18 18 15 11 20 24 22 24 32 29 23 14 14 13 9 6 8 13 11 13 14 10 11 8 11 11 13 15 15 15 17 18 16 17 17 16 17 14 11 9 13 14 12 11 8 8 6 6 5 8 8 6 5 4 3 3 1 1 1 3 3 4 5 6 8 7 7 6 6 7 9 9 10 9 9 9 9 10 11
20 27 19 12 8 12 14 5 3 5 7 15 17 19 22 18 15 16 16 14 11 10 8 11 13 9 10 9 10 7 12 12 12 11 9 12 14 10 8 10 8 8 10 11 12 10 11 10 11 12 12 9 8 7 6 5 6 9 7 6 4 4 2 2 2 3 4 3 3 4 6 8 9 8 6 6 5 6 7 8 10 9 10 9 10 12
16 12 13 15 7 9 15 14 25 19 9 13 21 24 19 12 14 11 12 15 15 12 9 9 9 10 12 11 15 15 13 12 13 11 11 12 14 14 14 12 14 15 17 15 13 14 12 12 11 11 11 11 9 7 6 6 5 5 6 5 5 4 3 3 4 4 4 4 3 4 4 5 6 8 9 7 5 4 6 8 8 9 9 9 10 10
14 10 13 16 11 17 19 19 21 19 20 16 15 15 18 21 21 9 10 10 13 11 8 11 7 7 8 12 15 14 14 13 14 13 14 15 17 13 12 12 14 11 6 9 13 10 11 11 11 12 11 10 9 8 7 6 6 6 6 5 5 5 4 5 5 5 3 3 3 4 4 4 7 8 8 9 8 7 5 4 6 8 10 10 11 9
5 15 13 12 17 19 16 16 13 8 1 8 17 19 20 20 17 16 17 15 11 9 9 7 10 13 13 17 14 12 12 14 16 18 18 15 15 14 11 12 11 13 14 14 12 14 12 12 11 11 12 10 9 8 7 7 6 6 6 5 6 5 5 6 4 4 2 2 2 4 3 4 4 5 6 8 10 8 5 6 8 8 9 9 8 11
7 14 5 8 15 15 17 19 18 17 17 18 23 25 24 23 21 17 14 14 16 16 14 13 13 10 10 12 14 15 18 16 16 16 18 18 20 18 13 15 16 13 10 8 9 9 12 10 12 13 11 9 9 8 8 8 7 6 6 5 5 5 7 6 5 4 2 1 2 4 4 4 5 4 5 5 5 9 13 12 14 10 9 9 18 23
16 17 13 17 16 20 20 24 21 22 23 20 22 22 20 19 18 19 20 22 22 21 20 16 13 9 11 12 14 18 18 18 18 16 16 15 16 19 22 24 19 14 13 13 13 12 15 12 11 13 10 9 9 8 8 8 7 6 5 5 4 6 8 6 6 3 1 1 2 3 4 5 5 5 5 4 4 4 4 10 14 16 17 18 21 22
Wind_Direction
70 173 213 212 223 227 229 193 189 194 157 116 119 163 244 237 278 265 228 258 15 307 250 252 239 252 264 267 273 195 206 230 231 230 228 212 205 209 213 215 217 217 217 191 200 198 192 191 191 190 178 183 182 177 179 177 193 189 188 174 218 230 232 217 228 252 224 263 296 278 255 269 274 282 292 310 9 274 261 273 298 314 317 327 330 335
65 272 244 223 223 206 210 155 105 86 91 163 199 218 275 204 261 264 251 14 304 171 289 270 243 252 256 266 271 211 189 226 216 228 231 216 212 212 212 217 217 219 182 180 211 208 198 194 197 188 183 175 171 201 181 185 193 193 191 182 216 233 222 216 207 210 217 211 206 235 266 272 290 298 301 317 340 334 328 335 339 335 335 337 338 335
17 228 238 224 199 101 76 122 121 157 158 90 208 236 305 270 247 279 311 12 309 150 259 283 274 259 255 260 267 257 216 237 216 213 226 208 213 216 214 220 217 204 206 197 209 201 198 195 199 190 191 193 186 180 185 191 181 189 193 207 215 216 209 223 216 198 220 228 237 212 255 253 273 260 248 256 270 293 297 316 324 314 312 318 321 322
289 273 245 195 138 105 55 81 111 75 79 146 117 178 242 227 18 305 301 5 309 172 289 302 288 275 259 252 251 259 234 250 230 220 230 207 214 214 215 210 207 209 202 202 199 199 194 194 196 195 196 198 189 179 185 181 190 194 197 204 207 220 216 222 225 215 220 225 235 248 251 265 248 266 265 261 271 290 342 319 312 310 316 321 312 309
215 199 94 118 135 140 160 159 131 163 251 261 193 216 253 268 235 194 267 315 272 310 98 289 275 269 214 235 265 276 309 259 260 229 237 229 226 225 229 225 213 209 201 202 199 197 193 195 201 196 196 190 186 185 183 186 192 189 196 199 196 210 213 215 216 218 224 237 275 260 268 252 270 261 248 230 247 191 261 276 284 288 277 279 284 279
276 253 141 95 111 104 142 197 214 150 240 314 228 204 222 233 259 280 341 6 6 322 340 22 326 275 308 228 260 277 312 288 232 215 232 230 224 223 224 224 214 219 207 203 200 195 192 193 194 199 196 190 192 188 190 184 191 183 195 190 205 223 225 222 226 217 205 228 269 323 347 349 344 331 339 344 344 335 333 322 315 313 312 305 298 296
226 26 145 183 153 152 177 200 243 157 196 51 269 194 220 227 199 325 324 39 306 224 306 42 162 283 130 216 244 268 241 266 277 228 250 224 224 215 226 223 208 207 205 208 201 194 192 197 193 199 195 191 187 196 183 182 189 192 189 188 195 206 219 222 228 211 211 254 253 287 304 268 278 293 271 267 286 287 295 295 300 299 297 291 292 293
99 40 70 70 114 143 179 249 238 158 126 237 245 115 106 117 146 198 127 198 244 323 290 204 181 274 285 241 233 244 260 272 280 272 255 243 221 221 225 221 212 207 204 198 199 195 196 193 193 193 191 188 190 184 175 180 191 191 202 190 201 210 217 231 226 227 203 259 281 314 295 281 287 284 289 303 290 275 281 293 292 294 285 280 276 286
136 170 170 142 118 150 208 209 185 162 153 221 204 122 128 133 176 143 148 237 239 19 290 197 178 297 244 270 308 349 258 262 260 263 264 245 226 226 228 222 216 210 204 197 196 195 193 195 196 188 187 192 186 175 173 184 191 196 196 184 181 215 219 243 236 224 253 248 273 262 275 291 283 287 293 296 291 290 289 286 290 288 287 283 274 274
290 159 209 157 149 226 219 259 177 167 202 241 131 87 78 70 66 101 124 156 323 57 276 198 186 219 280 183 188 360 205 248 249 251 255 251 223 223 226 225 217 210 204 204 203 196 195 195 191 188 179 183 186 180 175 182 178 186 181 188 184 236 224 234 254 227 273 267 261 285 288 304 308 306 300 296 304 305 304 296 292 290 291 291 292 285
300 298 152 149 201 205 131 71 141 30 86 125 107 89 16 43 41 33 68 87 43 267 257 234 188 177 284 177 186 160 203 201 226 267 279 277 261 235 225 217 209 204 203 201 198 196 195 188 186 181 184 181 182 177 176 177 181 182 185 195 198 228 237 242 249 244 279 281 281 294 310 312 310 310 309 317 313 312 309 304 301 299 299 297 295 300
354 47 207 257 79 106 101 83 44 97 144 127 78 105 19 343 16 35 340 43 150 265 264 288 187 186 219 276 233 230 263 205 185 212 235 253 253 241 219 217 209 203 201 194 187 190 181 178 195 184 184 179 178 175 179 189 184 182 191 185 214 245 247 261 267 308 291 292 303 315 314 311 300 299 306 308 304 305 301 298 299 300 298 299 299 296
274 217 227 316 198 131 117 82 353 16 27 92 76 41 80 270 18 315 35 296 195 233 184 2 157 315 234 245 209 247 254 238 226 216 225 244 262 244 227 217 209 202 191 189 190 182 183 188 187 189 182 175 179 182 188 191 186 184 180 192 202 250 238 257 266 291 293 318 317 321 315 299 288 290 294 295 293 294 296 299 299 304 305 308 306 302
277 356 153 220 91 218 138 155 228 293 206 123 158 144 106 270 103 263 271 232 301 290 266 164 138 248 276 277 219 229 232 224 222 223 233 238 254 251 223 216 207 200 196 193 188 189 190 190 189 184 177 179 179 185 188 186 179 178 186 188 192 235 236 264 315 305 321 312 308 310 295 282 280 285 287 288 290 292 290 292 295 302 304 303 297 299
298 304 252 146 242 159 185 207 184 158 158 196 112 152 184 142 155 227 211 243 257 255 249 262 46 238 351 241 242 211 226 234 234 254 253 264 257 264 232 216 209 203 201 190 191 193 192 190 183 181 179 180 183 185 185 179 179 167 185 186 197 237 269 265 279 318 310 301 302 297 277 270 275 277 283 282 282 288 294 295 295 294 296 293 296 295
219 244 263 353 220 142 182 336 107 104 59 162 161 80 96 229 124 220 206 195 296 340 319 178 214 200 220 11 306 294 319 254 251 265 278 267 258 229 233 215 212 206 195 190 194 195 195 188 182 180 181 183 181 183 178 177 170 170 189 184 194 203 235 262 297 301 285 288 294 285 277 277 278 286 288 286 283 282 285 292 296 295 292 288 291 293
31 269 324 357 53 114 183 105 216 141 208 204 114 199 211 145 145 18 353 66 64 65 265 138 277 267 309 271 224 234 210 246 235 260 252 253 250 198 232 226 215 205 194 191 196 195 188 181 190 185 179 179 180 175 178 178 173 174 175 175 193 207 223 242 276 264 282 288 289 279 278 287 293 291 290 290 292 292 291 290 292 291 290 289 287 289
175 252 181 87 215 320 247 176 328 31 153 105 199 235 167 151 110 129 218 319 65 208 268 45 265 285 310 290 47 73 192 243 241 241 239 252 240 221 236 229 213 204 200 198 198 194 188 189 186 182 181 178 177 178 175 173 172 164 163 170 170 195 244 265 243 263 267 282 278 278 284 290 290 293 290 289 292 297 298 295 292 290 292 290 290 289
123 283 287 328 108 307 14 135 342 324 38 142 191 241 121 215 199 302 88 263 252 256 266 278 284 270 248 263 248 190 196 225 237 238 248 255 239 233 239 236 214 192 189 193 194 190 188 189 190 184 178 175 175 172 168 162 149 143 153 157 156 200 214 228 244 268 281 269 271 280 296 299 299 291 289 293 296 299 298 297 296 295 290 289 289 291
45 192 298 251 168 254 5 129 202 189 9 65 335 340 287 103 178 136 197 187 113 247 21 277 319 272 252 177 246 220 206 203 218 238 239 237 231 224 231 226 199 195 202 198 195 195 193 191 187 179 172 171 169 163 164 148 138 148 156 150 163 174 197 236 272 271 277 268 277 294 292 288 286 290 294 300 303 300 297 294 295 294 293 290 289 288
178 120 242 59 303 95 194 189 211 168 177 192 186 265 342 232 233 111 331 153 175 189 214 274 298 274 276 170 212 227 184 193 193 215 228 236 230 224 225 214 202 204 202 200 196 194 190 186 181 176 169 168 164 157 148 148 153 152 142 155 161 185 221 234 251 253 256 272 282 287 289 293 299 301 303 300 297 297 295 295 292 291 290 292 289 294
122 169 211 175 59 216 237 263 260 198 195 182 177 206 191 144 138 155 255 79 152 186 233 177 248 274 271 123 188 206 190 182 209 208 232 232 221 223 225 216 203 206 208 199 198 189 183 179 174 166 163 156 152 152 151 146 128 133 153 160 172 171 199 228 259 244 271 284 284 286 296 300 304 303 302 300 300 297 296 293 293 293 293 291 291 292
151 131 203 221 220 235 177 256 222 215 82 197 199 231 168 193 126 158 236 227 76 253 85 138 345 269 273 125 152 194 185 200 215 210 230 219 218 224 225 219 215 211 202 196 189 186 181 180 176 167 162 162 162 161 153 146 146 151 153 152 179 166 226 228 239 260 282 288 292 298 303 308 307 305 301 300 299 298 298 296 294 292 292 293 296 296
81 127 238 258 311 351 315 329 58 66 126 305 255 148 136 197 198 210 224 162 173 223 163 188 225 259 263 84 136 158 214 244 255 220 224 228 226 230 226 219 208 205 200 185 181 176 176 172 165 160 169 169 162 153 157 152 142 142 151 161 169 190 229 235 257 280 280 287 295 304 309 309 303 301 301 301 302 298 296 294 290 293 295 299 302 302
147 240 179 279 325 315 337 359 48 334 72 219 221 200 206 228 219 196 74 113 240 227 160 127 245 254 263 55 85 70 9 239 244 228 199 233 233 227 227 221 209 198 179 180 182 178 169 173 178 180 170 166 161 154 150 147 149 149 161 152 176 204 215 248 272 281 290 304 310 311 308 300 302 298 296 293 290 288 291 294 300 300 300 301 302 304
178 172 153 211 227 240 248 239 232 220 209 217 248 236 212 209 210 105 235 197 225 229 148 204 246 249 271 251 83 300 250 267 260 238 244 228 231 229 229 216 201 191 196 188 176 170 185 189 179 167 168 162 159 155 150 147 147 151 153 167 169 187 227 275 265 292 315 317 311 304 295 289 289 295 295 295 294 290 289 293 300 304 304 305 304 307
192 189 201 213 217 230 238 248 57 111 80 176 227 206 222 210 216 216 242 188 218 220 178 227 239 265 269 268 244 257 261 238 260 253 241 235 236 235 228 215 203 200 195 187 185 188 174 173 186 174 160 159 154 149 149 148 150 152 155 160 170 158 243 268 312 326 325 317 304 293 289 292 297 299 296 291 291 295 301 303 307 311 309 309 305 304
85 219 224 227 231 239 245 251 176 158 176 215 214 227 225 211 200 205 215 229 221 205 246 240 251 250 260 265 272 270 269 274 273 271 269 241 230 221 219 212 198 191 191 186 183 184 190 189 173 165 162 152 150 141 142 146 147 154 154 165 163 182 242 301 350 331 322 311 297 288 290 297 300 299 296 298 302 304 304 306 309 310 310 310 306 304
189 230 234 228 241 246 248 251 154 201 223 228 209 227 229 209 200 214 229 236 220 208 237 248 246 250 256 260 263 266 264 266 268 275 260 233 228 223 196 186 197 200 192 188 197 195 188 183 177 165 158 154 145 149 147 145 141 140 142 140 172 199 294 32 359 333 317 303 292 291 298 301 302 299 298 305 306 309 313 315 313 310 309 304 300 297
155 243 244 235 251 247 251 247 186 200 236 252 251 242 239 184 206 221 233 233 218 232 241 249 256 258 260 260 263 264 266 268 278 287 282 236 233 219 205 208 208 200 192 198 200 196 191 180 166 161 155 153 157 153 152 151 150 153 155 173 198 195 126 77 354 318 306 296 294 296 300 302 299 302 308 310 315 316 317 315 314 310 308 304 298 297
181 243 235 246 260 254 254 250 212 215 231 250 255 258 250 212 213 230 239 238 231 244 249 254 261 263 259 262 265 268 274 283 279 276 271 269 249 221 213 217 213 199 202 206 200 191 181 169 163 158 158 162 159 159 153 150 148 141 155 180 178 180 112 60 319 290 279 280 289 297 298 299 302 307 311 315 315 317 317 315 313 309 306 305 303 300
177 274 58 74 238 258 253 251 187 208 227 239 253 256 255 240 233 237 241 226 218 237 246 257 258 256 262 265 266 270 269 264 263 263 266 263 253 222 221 224 212 204 206 203 194 179 171 170 172 168 165 161 157 152 151 151 152 152 170 172 158 162 49 327 289 282 278 278 286 290 296 302 307 312 316 321 319 317 315 311 310 309 308 307 306 304
196 175 218 215 238 249 267 90 153 129 101 269 248 242 243 247 240 247 252 236 222 227 239 245 246 247 259 275 279 272 265 259 259 259 258 259 248 221 221 223 212 210 205 195 184 182 179 177 174 165 156 156 156 154 154 147 148 165 168 150 155 100 294 279 272 277 278 282 282 288 305 307 315 320 322 324 319 315 314 313 311 311 312 310 307 306
190 213 225 187 236 247 250 122 122 149 227 236 250 249 226 240 242 238 241 243 240 216 227 234 252 259 268 268 259 264 273 270 264 262 241 231 243 232 226 223 215 210 203 190 185 179 174 162 159 160 159 152 145 137 129 136 144 141 135 131 140 152 231 268 280 275 275 277 286 296 306 314 325 324 323 320 318 316 315 315 311 310 307 308 312 314
198 204 228 192 245 243 126 137 193 216 235 246 18 249 217 222 226 228 240 244 245 239 235 244 255 256 251 257 260 265 267 272 279 288 272 222 223 222 217 215 210 203 189 179 172 171 171 168 156 144 138 136 134 132 135 137 137 134 131 142 147 173 199 251 272 275 276 290 295 304 316 331 332 329 324 323 320 317 313 311 311 312 313 312 314 315
206 202 187 229 202 34 119 201 234 238 252 332 293 269 234 242 226 249 261 251 251 246 235 235 248 255 250 254 261 260 264 281 299 267 218 239 216 212 212 215 207 190 184 182 177 174 167 167 160 149 136 132 130 135 138 139 136 134 140 139 151 172 236 247 258 270 281 290 308 318 334 338 334 331 326 322 321 317 313 313 313 314 314 312 309 307
217 203 185 240 195 232 222 225 241 297 309 283 284 264 184 192 163 186 255 264 261 244 221 235 250 253 251 250 254 261 292 329 291 284 234 235 224 211 213 213 193 190 188 183 174 167 157 136 129 121 125 130 133 135 138 137 131 131 133 145 164 167 232 242 250 272 287 290 312 332 338 342 335 329 324 321 318 314 313 313 314 313 314 310 309 309
209 218 205 228 223 212 241 249 259 245 249 256 247 301 128 182 187 196 199 268 265 265 170 215 238 247 249 248 249 246 71 320 281 271 268 236 203 208 214 189 170 165 144 129 117 118 132 130 100 112 126 128 127 131 132 131 134 131 143 154 172 189 226 222 244 279 288 305 324 331 339 339 333 325 320 317 312 309 308 306 303 305 310 308 310 310
216 225 226 218 238 226 231 237 237 236 245 242 272 157 216 87 148 87 186 258 262 260 154 209 227 239 239 233 229 114 138 230 252 258 258 141 196 183 167 149 139 142 146 147 144 138 133 129 126 124 116 120 129 138 135 133 134 141 152 158 179 200 210 220 264 287 311 319 330 327 334 329 325 317 311 308 303 305 306 308 309 307 306 303 302 301
207 212 222 235 234 227 236 236 240 219 254 256 265 107 208 128 118 109 275 265 271 133 198 179 214 225 231 223 161 161 181 227 249 261 185 173 166 168 155 146 134 126 117 118 123 119 113 121 118 116 126 135 137 137 137 140 144 149 149 159 173 196 198 221 264 306 315 318 323 324 325 323 316 309 306 302 301 300 302 304 306 308 309 307 305 302
186 213 205 221 221 228 225 244 259 266 252 254 215 140 147 125 100 224 251 262 274 242 160 192 204 221 213 181 161 195 214 214 234 99 116 115 112 101 99 129 132 128 136 134 133 130 116 124 122 130 135 133 135 137 142 145 144 147 152 164 178 185 179 209 289 319 322 326 324 323 321 322 312 305 298 292 295 299 303 307 308 310 311 311 309 305
204 186 229 209 227 224 226 228 235 249 248 187 136 155 178 98 212 231 242 226 248 261 187 180 205 211 190 180 195 211 224 199 94 144 121 143 137 124 122 113 106 94 59 80 125 125 111 120 112 111 116 125 135 140 147 150 145 140 154 175 182 163 171 149 313 336 332 332 330 321 322 317 311 297 294 296 299 306 305 305 304 305 310 308 309 309
184 177 194 195 214 228 227 241 241 248 238 182 141 88 202 188 234 237 244 235 172 198 193 205 204 206 169 208 208 216 172 155 166 152 151 132 141 147 146 145 142 143 143 139 131 132 129 120 129 129 131 138 140 147 154 146 136 146 167 175 162 153 147 151 63 354 344 335 333 332 322 315 305 304 300 301 304 306 307 309 312 314 312 310 311 311
155 207 197 217 185 191 201 203 213 214 231 144 156 186 200 210 232 238 230 248 235 197 195 201 214 200 190 202 203 206 195 158 145 154 142 153 151 143 141 125 96 110 115 95 114 140 124 113 123 126 132 140 148 152 155 149 138 157 168 157 144 153 136 139 69 29 11 3 345 331 319 311 306 299 300 301 307 306 304 312 319 320 318 315 313 317
163 217 195 214 188 199 204 214 217 222 196 179 190 207 208 213 224 237 227 231 237 228 189 192 228 206 198 201 198 187 182 197 182 173 164 172 163 161 161 160 157 155 152 150 149 140 136 135 137 132 133 144 146 148 143 150 151 158 153 151 147 160 151 132 127 82 45 18 353 329 314 311 306 307 301 303 304 311 314 317 327 323 321 317 319 323
198 214 219 239 224 228 252 258 320 234 186 199 218 223 232 233 232 240 238 240 235 230 177 205 229 208 196 188 178 196 198 186 166 178 166 160 154 121 107 117 109 115 118 118 130 141 132 116 117 130 135 143 149 142 149 162 166 150 152 148 150 149 131 142 102 63 38 20 351 320 313 314 314 311 309 304 300 299 309 318 324 324 320 322 324 325
234 218 219 232 195 194 239 214 240 232 218 195 215 230 241 247 240 227 228 231 239 233 216 223 211 200 190 178 195 192 193 178 176 171 160 157 165 162 161 154 158 160 157 154 149 134 132 133 133 141 142 143 155 153 159 161 157 143 136 150 149 137 139 119 89 71 43 13 331 312 307 313 310 317 318 311 303 295 309 323 320 320 320 323 322 305
245 192 228 222 215 212 235 226 230 233 233 211 217 236 242 241 239 219 223 229 231 233 209 211 191 203 176 192 200 188 186 175 169 167 167 172 173 165 162 162 153 146 137 129 138 135 125 140 142 145 145 145 160 160 161 158 152 146 144 143 142 143 134 99 71 70 35 334 321 308 306 304 307 313 311 314 320 326 322 319 312 319 327 329 326 316
212 149 222 163 219 233 250 261 266 252 294 249 234 230 236 240 235 226 225 229 236 235 224 210 193 203 184 204 186 179 170 184 181 173 169 171 169 174 172 160 160 153 146 149 153 157 159 150 142 144 142 145 155 158 156 157 150 150 153 147 151 156 115 95 81 75 38 328 321 314 302 295 290 294 299 310 324 324 320 320 322 326 316 316 306 325
111 208 179 167 231 234 225 230 227 246 244 239 241 235 232 234 236 231 228 229 228 228 220 213 217 214 204 194 180 179 184 183 181 173 172 173 176 172 156 149 140 141 136 128 132 141 121 133 137 143 139 145 153 156 155 151 150 151 147 143 159 151 107 104 96 81 46 349 319 310 308 312 308 293 296 310 322 327 326 325 339 340 331 321 334 339
203 210 187 219 212 233 224 230 227 231 240 235 244 242 231 228 228 224 221 226 225 222 217 210 212 203 205 210 193 185 186 177 179 170 171 176 179 175 158 150 151 154 145 147 141 151 152 152 137 117 137 150 154 155 154 145 147 149 150 153 147 126 110 107 91 78 59 360 327 307 311 310 309 305 310 317 321 316 318 324 328 338 347 343 338 339